INTELSAT 39 (IS-39)

Last updated on Sept. 27, 2020, 5:41 a.m. UTC

1 44476U 19049B   20270.63770483  .00000010  00000-0  00000-0 0  9998
2 44476   0.0150 220.5212 0000521 174.4360 262.4494  1.00271285  4203
UTC
Height (km)
Latitude
Longitude
Inclination
Orbital Period
UTC large
Height (km)
Speed (km/s)
/
Latitude / Longitude
Inclination (degrees)
Orbital Period (minutes)
Azimuth
Elevation
Range (km)
Doppler Factor
iOS Compass Heading
iOS Angle

Next 30 passes for location: Hong Kong

Rise time Rise Azimuth (degrees) Set time Set Azimuth (degrees) Duration Max altitude (degrees)

No matching passes for this satellites